TimeEST,TemperatureF,Dew PointF,Humidity,Sea Level PressureIn,VisibilityMPH,Wind Direction,Wind SpeedMPH,Gust SpeedMPH,PrecipitationIn,Events,Conditions,WindDirDegrees,DateUTC
12:56 AM,39.9,39.9,100,29.94,0.5,Calm,Calm,-,N/A,Fog,Fog,0,2013-12-30 05:56:00
1:06 AM,39.9,39.0,97,29.94,0.8,Calm,Calm,-,N/A,,Mist,0,2013-12-30 06:06:00
1:13 AM,41.0,39.9,96,29.94,0.5,WSW,3.5,-,N/A,Fog,Fog,250,2013-12-30 06:13:00
1:16 AM,41.0,39.9,96,29.94,1.0,Calm,Calm,-,N/A,,Mist,0,2013-12-30 06:16:00
1:23 AM,41.0,39.9,96,29.94,2.0,Calm,Calm,-,N/A,,Partly Cloudy,0,2013-12-30 06:23:00
1:30 AM,39.9,39.0,97,29.94,1.0,Calm,Calm,-,N/A,,Mist,0,2013-12-30 06:30:00
1:38 AM,39.9,39.0,97,29.95,0.8,Calm,Calm,-,N/A,,Clear,0,2013-12-30 06:38:00
1:45 AM,39.9,39.0,97,29.95,1.8,Calm,Calm,-,N/A,,Clear,0,2013-12-30 06:45:00
1:53 AM,39.2,39.2,100,29.95,3.0,Calm,Calm,-,N/A,,Clear,0,2013-12-30 06:53:00
1:56 AM,39.9,39.0,97,29.96,4.0,Calm,Calm,-,N/A,,Clear,0,2013-12-30 06:56:00
1:58 AM,39.0,37.9,96,29.95,1.5,Calm,Calm,-,N/A,,Clear,0,2013-12-30 06:58:00
2:04 AM,39.9,39.0,97,29.96,0.5,Calm,Calm,-,N/A,Fog,Fog,0,2013-12-30 07:04:00
2:10 AM,39.0,37.9,96,29.95,0.8,West,3.5,-,N/A,,Mist,270,2013-12-30 07:10:00
2:19 AM,39.0,37.9,96,29.96,1.0,West,3.5,-,N/A,,Clear,280,2013-12-30 07:19:00
2:25 AM,39.9,39.0,97,29.96,3.0,WNW,4.6,-,N/A,,Clear,290,2013-12-30 07:25:00
3:56 AM,41.0,37.9,89,29.98,10.0,West,6.9,-,N/A,,Clear,280,2013-12-30 08:56:00
4:56 AM,39.0,37.0,93,29.97,10.0,West,6.9,-,N/A,,Clear,280,2013-12-30 09:56:00
5:56 AM,37.9,36.0,93,29.99,10.0,West,3.5,-,N/A,,Unknown,270,2013-12-30 10:56:00
6:56 AM,37.9,36.0,93,30.01,10.0,West,3.5,-,N/A,,Clear,280,2013-12-30 11:56:00
7:56 AM,37.0,36.0,96,30.04,8.0,Calm,Calm,-,N/A,,Clear,0,2013-12-30 12:56:00
8:56 AM,44.1,39.0,82,30.05,10.0,West,4.6,-,N/A,,Clear,270,2013-12-30 13:56:00
9:56 AM,48.9,42.1,77,30.09,10.0,Calm,Calm,-,N/A,,Clear,0,2013-12-30 14:56:00
10:56 AM,50.0,41.0,71,30.09,10.0,West,3.5,-,N/A,,Clear,260,2013-12-30 15:56:00
11:56 AM,52.0,39.0,61,30.06,10.0,Variable,3.5,-,N/A,,Clear,0,2013-12-30 16:56:00
12:56 PM,53.1,37.9,57,30.06,10.0,West,8.1,-,N/A,,Clear,270,2013-12-30 17:56:00
1:56 PM,52.0,37.9,59,30.06,10.0,WNW,5.8,-,N/A,,Partly Cloudy,290,2013-12-30 18:56:00
2:56 PM,52.0,39.0,61,30.07,10.0,Variable,3.5,-,N/A,,Mostly Cloudy,0,2013-12-30 19:56:00
3:56 PM,51.1,39.9,66,30.08,10.0,Calm,Calm,-,N/A,,Clear,0,2013-12-30 20:56:00
4:56 PM,48.0,42.1,80,30.09,10.0,Calm,Calm,-,N/A,,Clear,0,2013-12-30 21:56:00
5:56 PM,46.9,39.9,77,30.10,10.0,Calm,Calm,-,N/A,,Clear,0,2013-12-30 22:56:00
6:56 PM,46.0,37.9,73,30.10,10.0,Calm,Calm,-,N/A,,Partly Cloudy,0,2013-12-30 23:56:00
7:56 PM,45.0,36.0,71,30.13,10.0,NW,3.5,-,N/A,,Mostly Cloudy,320,2013-12-31 00:56:00
8:56 PM,45.0,33.1,63,30.14,10.0,Variable,4.6,-,N/A,,Overcast,0,2013-12-31 01:56:00
9:56 PM,44.1,32.0,63,30.14,10.0,Variable,3.5,-,N/A,,Overcast,0,2013-12-31 02:56:00
10:56 PM,44.1,32.0,63,30.14,10.0,Calm,Calm,-,N/A,,Overcast,0,2013-12-31 03:56:00
11:56 PM,43.0,33.1,68,30.14,10.0,Calm,Calm,-,N/A,,Overcast,0,2013-12-31 04:56:00